Regional Weather Roundup
Issued by NWS

Home | Current Version | Previous Version | Graphics & Text | Print | Product List | Glossary Off
Versions: 1 2 3 4 5 6 7 8 9 10 11 12 13 14 15 16 17 18 19 20 21 22 23 24 25 26 27 28 29 30 31 32 33 34 35 36 37 38 39 40 41 42 43 44 45 46 47 48 49 50

000
ASUS43 KMKX 291911
RWRWI

WISCONSIN REGIONAL WEATHER ROUNDUP
NATIONAL WEATHER SERVICE MILWAUKEE/SULLIVAN WI
200 PM CDT SUN MAY 29 2016

NOTE: "FAIR" INDICATES FEW OR NO CLOUDS BELOW 12,000 FEET WITH NO
SIGNIFICANT WEATHER AND/OR OBSTRUCTIONS TO VISIBILITY.

WIZ001-002-006>008-014>016-023>028-292000-
NORTHWEST WISCONSIN

CITY           SKY/WX    TMP DP  RH WIND       PRES   REMARKS
SUPERIOR ARPT  CLOUDY    65  58  76 W14G25    29.87R
ASHLAND        CLOUDY    68  57  68 W12G23    29.85R
HAYWARD        CLOUDY    69  56  62 W10G21    29.90R
SIREN          CLOUDY    71  53  52 W21G29    29.93S
CUMBERLAND     CLOUDY    68  55  64 W17G24    29.93S
RICE LAKE      PTSUNNY   70  57  63 W15G21    29.94R
CHETEK         PTSUNNY   70  60  69 W12G18    29.92S
LADYSMITH      PTSUNNY   69  60  71 W13G22    29.92S
EAU CLAIRE     RAIN      67  60  78 W18       29.93S
MENOMONIE      PTSUNNY   73  64  73 W13G24    29.94R
NEW RICHMOND   MOSUNNY   73  57  56 W20G25    29.96R
OSCEOLA        PTSUNNY   71  57  60 W16G23    29.98S
$$

WIZ003>005-009-010-017-018-292000-
NORTH CENTRAL WISCONSIN

CITY           SKY/WX    TMP DP  RH WIND       PRES   REMARKS
MANITOWISH WTR NOT AVBL
ARBOR VITAE    MOSUNNY   65  62  87 W8        29.87S
WOODRUFF       MOSUNNY   65  62  87 W8        29.87S
RHINELANDER    CLOUDY    70  57  63 W20G25    29.88S
EAGLE RIVER      N/A     68  55  62 W14       29.85F
LAND O LAKES   LGT RAIN  68  57  67 W10       29.85S
PHILLIPS       CLOUDY    67  59  76 W9G20     29.88R
TOMAHAWK       HVY RAIN  66  57  72 W8G16     29.89S
MEDFORD        CLOUDY    66  60  81 W9G23     29.91R
MERRILL        PTSUNNY   68  64  86 W10       29.89S
$$

WIZ029-030-035-036-043>047-292000-
CENTRAL WISCONSIN

CITY           SKY/WX    TMP DP  RH WIND       PRES   REMARKS
WAUSAU         CLOUDY    72  60  66 W16G22    29.88S
MOSINEE        LGT RAIN  66  64  94 SW14G20   29.92R
MARSHFIELD     LGT RAIN  65  61  87 W14G23    29.92S
STEVENS POINT  CLOUDY    66  61  85 W12G17    29.93R
WAUPACA        CLOUDY    72  61  68 SW9G20    29.91S
WAUTOMA        PTSUNNY  N/A N/A N/A W16G24    29.93R
WISC RAPIDS    CLOUDY    72  56  57 W20G29    29.93S
CAMP DOUGLAS   NOT AVBL
$$

WIZ011>013-019>022-031-037>040-048>050-292000-
NORTHEAST WISCONSIN

CITY           SKY/WX    TMP DP  RH WIND       PRES   REMARKS
ANTIGO         PTSUNNY   69  61  77 W13G18    29.88F
SHAWANO        CLOUDY    74  60  62 W16G25    29.88S
OCONTO         PTSUNNY   72  63  73 W16G22    29.85F
STURGEON BAY   NOT AVBL
GREEN BAY      PTSUNNY   72  63  73 W15G21    29.88S
MANITOWOC      CLOUDY    73  60  63 SW17G30   29.91S
APPLETON       PTSUNNY   70  61  73 W18       29.90S
CLINTONVILLE   CLOUDY    73  59  60 W14G21    29.89S
OSHKOSH        CLOUDY    72  59  63 W6        29.91S
$$

WIZ032>034-041-042-053>061-292000-
SOUTHWEST WISCONSIN

CITY           SKY/WX    TMP DP  RH WIND       PRES   REMARKS
LA CROSSE      MOSUNNY   78  57  48 W15G28    29.95S
SPARTA         PTSUNNY   75  57  52 W17G23    29.95S
VIROQUA        MOSUNNY   76  56  50 W16G26    29.99S
BOSCOBEL       MOSUNNY   79  59  50 W14       29.98F HX  80
PRAIRIE DU CHI PTSUNNY   77  55  46 W17G24    29.99F
PLATTEVILLE    MOSUNNY   76  59  55 SW21      30.02S
$$

WIZ056-057-062-063-064-067-068-292000-
SOUTH CENTRAL WISCONSIN

CITY           SKY/WX    TMP DP  RH WIND       PRES   REMARKS
REEDSBURG      PTSUNNY   75  58  55 W18G26    29.96S
BARABOO/DELLS  PTSUNNY   75  54  47 W13G21    29.96S
LONE ROCK      PTSUNNY   79  57  46 W15G29    29.98S HX  80
MINERAL POINT  MOSUNNY   77  59  53 W16G24    30.01S
MADISON        MOSUNNY   76  58  53 W10G22    29.96S
MIDDLETON      MOSUNNY   76  60  57 W18G24    29.98S
WATERTOWN      MOSUNNY   75  59  55 W14G21    29.96S
MONROE         MOSUNNY   75  55  50 W18G26    30.00S
JANESVILLE     PTSUNNY   79  57  47 W14G23    29.98S HX  80
$$

WIZ051-052-058>065-066-070>072-292000-
SOUTHEAST WISCONSIN

CITY           SKY/WX    TMP DP  RH WIND       PRES   REMARKS
MILWAUKEE      PTSUNNY   75  59  57 W10       29.96S
WAUKESHA       PTSUNNY   73  57  56 W17G25    29.97S
MILWAUKEE/TIMM PTSUNNY   75  57  53 SW18G24   29.96S
RACINE         MOSUNNY   77  59  53 SW12G21   29.98F
BURLINGTON     MOSUNNY   75  57  52 SW13G26   29.97F
KENOSHA        MOSUNNY   75  60  59 SW18G25   29.98F
FOND DU LAC    MOSUNNY   75  59  57 W12G24    29.92S
SHEBOYGAN      CLOUDY    71  61  70 W12       29.92R
WEST BEND      PTSUNNY   73  55  53 SW17G24   29.94S
JUNEAU         CLOUDY    74  59  60 W20G26    29.96S
$$

LSZ147-162-292000-
LAKE SUPERIOR

STATION/POSITION TIME  TEMP    WIND        PRES    WAVE
                       AIR SEA DIR/SP/G            HT/PER
                 (UTC) (F)     (DEG/KT/KT) (MB)    (FT/S)
W MID LAKE BUOY  1850   46 38  240/ 14/ 14 1008.8S   1
DEVILS ISLAND    1900   54     240/ 22/ 26 1009.8R
SAXON HARBOR     1800   65     240/  6/ 14 1009.5
$$

LMZ867-665-643>646-292000-
LAKE MICHIGAN

STATION/POSITION TIME  TEMP    WIND        PRES    WAVE
                       AIR SEA DIR/SP/G            HT/PER
                 (UTC) (F)     (DEG/KT/KT) (MB)    (FT/S)
CHAMBERS ISLAND  1800   63     180/ 11/ 23 1011.2R
N MID LAKE BUOY  1850   50 47  190/ 12/ 16 1010.9F   2/ 4
NORTHPORT PIER   1800   59     140/  6/ 10 1010.8F
SISTER BAY       1705   66     160/ 10/ 15   N/A
ALGOMA LAKESHORE 1702          230/ 14/ 21   N/A
KEWAUNEE LAKESHO 1800   68     230/ 12/ 16 1011.4R
SHEBOYGAN LAKESH 1900   72     260/ 10/ 14 1013.2R
PORT WASHINGTON  1840   78     240/ 10/ 16 1014.2F
S MID LAKE BUOY  1850   57 51  230/ 12/ 12 1015.2R   1/ 3
KENOSHA   LAKESH 1900   75     240/ 16/ 25 1014.9S
$$

TC  - TEMPERATURE IN CELSIUS
VSB - VISIBILITY IN STATUTE MILES
WCI - WIND CHILL INDEX
HX  - HEAT INDEX





USA.gov is the U.S. government's official web portal to all federal, state and local government web resources and services.